Location: Antichan
(42.9728°N, 0.6667°E)
Time: 14:29:59
(UTC+00:00)

Cosmos 2237 Rocket - Pass Details

Date: 15 August 2020
Orbit: 836 x 848 km, 71.0° (Epoch: 24 September)

Event Time Altitude Azimuth Distance (km) Brightness Sun altitude
Rises 22:36:23 0° 342° (NNW) 3,406 6.5 -30.1°
Reaches altitude 10° 22:39:08 10° 353° (N) 2,466 5.5 -30.3°
Enters shadow 22:44:02 31° 53° (NE) 1,434 3.4 -30.6°
